Location: Goll?ig?dem
(16.6773°N, 80.7332°E)
Time: 16:20:15
(UTC+00:00)

GPS 2-17 Rocket1 - Visible Passes

Search period start: 21 May 2026 00:00
Search period end: 31 May 2026 00:00
Orbit: 544 x 613 km, 20.3° (Epoch: 20 May)

Date Brightness Start Highest point End Pass type
(mag) Time Alt. Az. Time Alt. Az. Time Alt. Az.
21 May 2.7 14:01:03 10° WSW 14:05:12 69° SSE 14:07:46 22° E visible
21 May 5.8 15:43:36 10° W 15:43:57 12° W 15:43:57 12° W visible
22 May 2.7 14:03:29 10° WSW 14:07:39 89° NNW 14:10:25 21° ENE visible
22 May 5.8 15:46:09 10° W 15:46:36 13° W 15:46:36 13° W visible
23 May 3.0 14:05:59 10° W 14:10:07 70° N 14:12:57 20° ENE visible
23 May 5.8 15:48:42 10° WNW 15:49:08 13° WNW 15:49:08 13° WNW visible
24 May 3.2 14:08:30 10° W 14:12:37 59° N 14:15:24 19° ENE visible
24 May 5.9 15:51:12 10° WNW 15:51:34 12° WNW 15:51:34 12° WNW visible
25 May 3.4 14:11:03 10° W 14:15:07 52° N 14:17:47 20° ENE visible
25 May 5.9 15:53:41 10° WNW 15:53:56 11° WNW 15:53:56 11° WNW visible
26 May 3.5 14:13:34 10° WNW 14:17:38 50° N 14:20:05 21° ENE visible
26 May 6.0 15:56:08 10° WNW 15:56:14 11° WNW 15:56:14 11° WNW visible
27 May 3.4 14:16:04 10° WNW 14:20:08 51° N 14:22:20 24° ENE visible
28 May 3.2 14:18:32 10° WNW 14:22:38 56° N 14:24:32 29° ENE visible
29 May 3.0 14:20:58 10° WNW 14:25:07 65° N 14:26:43 35° E visible
30 May 2.7 14:23:22 10° WNW 14:27:34 81° NNE 14:28:53 42° E visible
